Regional Weather Roundup
Issued by NWS

Home | Current Version | Previous Version | Graphics & Text | Print | Product List | Glossary On
Versions: 1 2 3 4 5 6 7 8 9 10 11 12 13 14 15 16 17 18 19 20 21 22 23 24 25 26 27
000
ASUS45 KTFX 271510
RWRMT
MONTANA REGIONAL WEATHER ROUNDUP
NATIONAL WEATHER SERVICE GREAT FALLS MT
800 AM MST MON FEB 27 2017

NOTE: "FAIR" INDICATES FEW OR NO CLOUDS BELOW 12000 FEET WITH NO
SIGNIFICANT WEATHER AND/OR OBSTRUCTIONS TO VISIBILITY.

MTZ001>007-043-271600-
WEST OF THE DIVIDE

CITY           SKY/WX    TMP DP  RH WIND       PRES   REMARKS
KALISPELL      LGT SNOW  15  10  80 N8        29.62S WCI   4
MISSOULA       CLOUDY    23  17  78 SE10      29.60R WCI  12
BUTTE          CLOUDY    11   4  73 CALM      29.51S
MULLAN PASS    LGT SNOW  17  13  84 SW5       29.43S FOG
ANACONDA         N/A     18   9  68 S7        29.53R WCI   8
DEER LODGE       N/A     12   9  85 CALM      29.56R
EUREKA           N/A     12   9  85 CALM      29.64S
HAMILTON         N/A     25  16  68 S13       29.57R WCI  13
LIBBY            N/A     16  12  86 CALM      29.61S
PLAINS           N/A     19  12  74 CALM      29.66S
RONAN            N/A     18  14  84 MISG      29.67S
$$

MTZ008-052>055-271600-
SOUTHWEST MONTANA

CITY           SKY/WX    TMP DP  RH WIND       PRES   REMARKS
BOZEMAN        CLEAR     13  10  88 CALM      29.59R
DILLON         CLOUDY    15   6  67 SE5       29.52S
W YELLOWSTONE  LGT SNOW  -8 -11  84 NE3       29.54R
ENNIS          CLEAR     16   7  67 S14       29.58R WCI   1
THREE FORKS      N/A     14 -19  21 NW5       29.64R
TWIN BRIDGES     N/A     17   5  59 E2        29.59R
$$

MTZ009-010-012-014-046-048-049-054-271600-
EAST SLOPES AND CENTRAL MONTANA

CITY           SKY/WX    TMP DP  RH WIND       PRES   REMARKS
CUT BANK       CLOUDY     5   4  95 SE3       29.59S FOG
GREAT FALLS    CLOUDY     8   5  87 E5        29.61F
MALMSTROM AFB  FLURRIES   7   5  92 S5        29.64S
HELENA         CLOUDY     8   5  87 CALM      29.61S
AUGUSTA        FLURRIES  -2  -4  91 CALM      29.55F
BOWMANS CRNR     N/A      4   2  91 S5        29.55S
CHOTEAU          N/A      3   1  92 CALM      29.61S
CONRAD           N/A     -3  -8  79 CALM      29.66S
POWER            N/A      1  -2  90 CALM      29.61S
RAYNESFORD     FLURRIES   8   4  85 E12       29.59F WCI  -7
ULM              N/A      2   0  91 MISG      29.62F
$$

MTZ011-013-016-021-045-047-050-051-271600-
NORTH CENTRAL MONTANA

CITY           SKY/WX    TMP DP  RH WIND       PRES   REMARKS
HAVRE          CLOUDY     9   7  92 NE10      29.73S FOG     WCI  -5
LEWISTOWN      CLEAR      5   4  95 E3        29.61R
N BAR RANCH    CLOUDY     7   1  78 S3        29.63R
CHINOOK          N/A      9   5  85 E6        29.76S WCI  -1
DENTON         FLURRIES  11   9  92 S8        29.61S WCI   0
FORT BENTON      N/A     10   7  85 MISG      29.70S
GEYSER         LGT SNOW  10   8  91 S3        29.60S
GRASS RANGE    LGT SNOW  10   9  94 CALM      29.62S
JUDITH GAP     FLURRIES   5   2  88 SE9       29.58R WCI  -9
ROY            FLURRIES  12  11  92 MISG      29.65S
STANFORD       FLURRIES   4   3  94 CALM      29.58S
WINIFRED       FLURRIES  10   8  95 E16       29.63S WCI  -8
$$

MTZ017>020-022>027-061-062-271600-
NORTHEAST MONTANA

CITY           SKY/WX    TMP DP  RH WIND       PRES   REMARKS
GLASGOW        CLOUDY    13   8  81 NE8       29.77R HAZE    WCI   2
JORDAN           N/A     16  12  84 E8        29.72R WCI   5
SIDNEY         LGT SNOW  13  10  88 NE15      29.80S VSB 1   WCI  -3
WOLF POINT     LGT SNOW  13   7  77 E13       29.82R WCI  -2
PLENTYWOOD       N/A      7   1  78 NE6       29.81R WCI  -3
POPLAR           N/A     10   5  79 NE13      29.82R WCI  -5
SCOBEY           N/A      7  -3  63 NW6       29.78R WCI  -3
$$

MTZ028>42-056>058-271600-
SOUTHCENTRAL AND SOUTHEAST MONTANA

CITY           SKY/WX    TMP DP  RH WIND       PRES   REMARKS
BAKER          CLOUDY    23  19  85 SE12      29.66R WCI  12
BILLINGS       FLURRIES  20  16  84 N9        29.64R WCI   9
LIVINGSTON     PTCLDY    15  11  83 E8        29.56R WCI   4
MILES CITY     CLOUDY    22  18  85 NE13      29.67R WCI  10
BIG TIMBER     CLOUDY    18  16  93 NE5       29.61S
EKALAKA          N/A     23  16  75 SE7       29.61R WCI  15
FORSYTH          N/A     21  18  86 N8        29.67R WCI  12
HARLOWTON      SNOWSHWR  11   7  86 E3        29.60S
LAUREL           N/A     20  12  71 NW8       29.65R WCI  10
$$

REGIONAL REPORTS...DAKOTAS

CITY           SKY/WX    TMP DP  RH WIND       PRES   REMARKS
WILLISTON      LGT SNOW  11   7  84 NE10      29.83R FOG     WCI  -3
MINOT          LGT SNOW  14   9  80 NW12      29.84R WCI   0
DICKINSON      CLOUDY    19  15  84 E9        29.70R WCI   8
BEACH            N/A    N/A N/A N/A MISG        N/A
CROSBY           N/A      5   0  78 N8        29.87R WCI  -8
TIOGA          CLOUDY     7   5  92 NE9       29.82R WCI  -7
WATFORD CITY   LGT SNOW  12   9  85 NE10      29.81R WCI  -1
BISMARCK       SUNNY     14  11  87 NE9       29.79F WCI   2
GRAND FORKS    CLOUDY    16   9  74 S3        29.89F
FARGO          SUNNY     22  15  75 SE7       29.89F WCI  13
BUFFALO SD       N/A     24  22  91 S8        29.58S WCI  15
RAPID CITY     CLOUDY    21  14  74 CALM      29.63S
$$

REGIONAL REPORTS...WYOMING/IDAHO/WASHINGTON

CITY           SKY/WX    TMP DP  RH WIND       PRES   REMARKS
GILLETTE       CLOUDY    27  13  55 CALM      29.56R
SHERIDAN       CLOUDY    21  12  68 VRB6      29.58R WCI  13
BUFFALO WY     CLOUDY    28   9  44 NE7       29.53R WCI  21
CODY           CLOUDY    25  15  66 S6        29.54R WCI  18
YELLOWSTONE LA   N/A     -2  -5  87 CALM      29.52R
IDAHO FALLS    CLOUDY    21  21 100 CALM      29.62R
SALMON         CLOUDY    21  12  68 CALM      29.59R
BOISE          CLOUDY    29  26  89 CALM      29.70R
SPOKANE        SNOW      25  24  96 SW7       29.63S VSB 1/2 WCI  17
$$

REGIONAL REPORTS...ALBERTA

CITY           SKY/WX    TMP DP  RH WIND       PRES   REMARKS
EDMONTON       MOCLDY     3  -4  72 SW5       29.61F
LETHBRIDGE     MOCLDY     0  -2  92 S3        29.64S
MEDICINE HAT   PTCLDY    -4  -8  84 SE2       29.75S
WATERTON GATE    N/A     -4  -9  77 CALM        N/A
CARDSTON         N/A      1  -2  85 S5          N/A
MILK RIVER       N/A      1   0  92 SE2         N/A
$$

REGIONAL REPORTS...SASKATCHEWAN

CITY           SKY/WX    TMP DP  RH WIND       PRES   REMARKS
SWIFT CURRENT  CLEAR     -4  -6  92 S7        29.73S WCI -18
REGINA         MOSUNNY    1  -2  85 NW6       29.84R WCI -10
SASKATOON      PTCLDY    -4  -8  84 S5        29.84S
VAL MARIE        N/A      1  -2  85 NE3         N/A
ROCKGLEN         N/A      0  -4  85 NE3         N/A
ASSINIBOIA       N/A      1  -4  78 S8          N/A  WCI -12
$$




USA.gov is the U.S. government's official web portal to all federal, state and local government web resources and services.